When you browse on this site, cookies collect data to enhance your experience and personalize the content and advertising you see.
Visit our Privacy Policy to learn more. By continuing to use the site, you agree to this use of cookies and data.
  • En España
  • Lista de países
  • Para 7 días
  • Temperatura del agua
  • Mapa Satelital
  • El tiempo en el mapa
  • Informadores
  • user-avatar
    Iniciar sesión

    Tiempo cada hora Kropyl'nyky

    Hoy, 23 Mayo, Jueves

    Tiempo Temperatura Precipitaciones Viento Presión Humedad
    00:00 +13°C° 0 mm 2 mps 729 mmHg 91%
    01:00 +13°C° 0 mm 2 mps 729 mmHg 92%
    02:00 +12°C° 0 mm 1 mps 729 mmHg 94%
    03:00 +12°C° 0 mm 1 mps 729 mmHg 94%
    04:00 +12°C° 0 mm 1 mps 730 mmHg 94%
    05:00 +11°C° 0 mm 0 mps 730 mmHg 94%
    06:00 +12°C° 0 mm 0 mps 730 mmHg 91%
    07:00 +13°C° 0 mm 0 mps 730 mmHg 89%
    08:00 +14°C° 0 mm 0 mps 730 mmHg 87%
    09:00 +16°C° 0.5 mm 1 mps 731 mmHg 84%
    10:00 +18°C° 0.5 mm 1 mps 731 mmHg 82%
    11:00 +18°C° 0.5 mm 2 mps 731 mmHg 79%
    12:00 +18°C° 0.9 mm 2 mps 731 mmHg 78%
    13:00 +19°C° 0.9 mm 2 mps 731 mmHg 77%
    14:00 +19°C° 0.9 mm 3 mps 731 mmHg 76%
    15:00 +19°C° 0.8 mm 3 mps 731 mmHg 77%
    16:00 +19°C° 0.8 mm 3 mps 731 mmHg 79%
    17:00 +19°C° 0.8 mm 3 mps 731 mmHg 80%
    18:00 +17°C° 0.3 mm 2 mps 731 mmHg 85%
    19:00 +16°C° 0.3 mm 2 mps 731 mmHg 89%
    20:00 +15°C° 0.3 mm 2 mps 731 mmHg 94%
    21:00 +14°C° 0 mm 2 mps 731 mmHg 95%
    22:00 +14°C° 0 mm 2 mps 731 mmHg 95%
    23:00 +12°C° 0 mm 3 mps 731 mmHg 96%

    Mañana, 24 Mayo, Viernes

    Tiempo Temperatura Precipitaciones Viento Presión Humedad
    00:00 +12°C° 0 mm 3 mps 731 mmHg 97%
    01:00 +12°C° 0 mm 3 mps 732 mmHg 97%
    02:00 +12°C° 0 mm 3 mps 732 mmHg 98%
    03:00 +12°C° 0 mm 3 mps 732 mmHg 97%
    04:00 +12°C° 0 mm 3 mps 731 mmHg 97%
    05:00 +12°C° 0 mm 3 mps 731 mmHg 97%
    06:00 +13°C° 0.5 mm 3 mps 732 mmHg 96%
    07:00 +13°C° 0.5 mm 3 mps 732 mmHg 95%
    08:00 +14°C° 0.5 mm 3 mps 732 mmHg 95%
    09:00 +16°C° 0.2 mm 3 mps 732 mmHg 93%
    10:00 +16°C° 0.2 mm 3 mps 732 mmHg 92%
    11:00 +17°C° 0.2 mm 3 mps 732 mmHg 90%
    12:00 +17°C° 0.5 mm 4 mps 732 mmHg 89%
    13:00 +18°C° 0.5 mm 4 mps 732 mmHg 88%
    14:00 +17°C° 0.5 mm 5 mps 732 mmHg 87%
    15:00 +17°C° 0.4 mm 5 mps 732 mmHg 87%
    16:00 +17°C° 0.4 mm 4 mps 731 mmHg 88%
    17:00 +17°C° 0.4 mm 4 mps 731 mmHg 88%
    18:00 +16°C° 0 mm 3 mps 731 mmHg 90%
    19:00 +16°C° 0 mm 3 mps 731 mmHg 92%
    20:00 +15°C° 0 mm 2 mps 731 mmHg 94%
    21:00 +14°C° 0.1 mm 2 mps 731 mmHg 95%
    22:00 +14°C° 0.1 mm 2 mps 731 mmHg 95%
    23:00 +13°C° 0.1 mm 2 mps 731 mmHg 96%

    Pasado mañana, 25 Mayo, Sábado

    Tiempo Temperatura Precipitaciones Viento Presión Humedad
    00:00 +13°C° 0 mm 2 mps 731 mmHg 96%
    01:00 +13°C° 0 mm 2 mps 731 mmHg 97%
    02:00 +12°C° 0 mm 2 mps 731 mmHg 97%
    03:00 +12°C° 0 mm 2 mps 731 mmHg 97%
    04:00 +11°C° 0 mm 3 mps 731 mmHg 97%
    05:00 +11°C° 0 mm 3 mps 731 mmHg 97%
    06:00 +12°C° 0 mm 3 mps 731 mmHg 95%
    07:00 +13°C° 0 mm 3 mps 732 mmHg 93%
    08:00 +14°C° 0 mm 3 mps 732 mmHg 91%
    09:00 +17°C° 0.1 mm 4 mps 732 mmHg 86%
    10:00 +18°C° 0.1 mm 4 mps 732 mmHg 81%
    11:00 +19°C° 0.1 mm 4 mps 732 mmHg 75%
    12:00 +20°C° 0.7 mm 4 mps 732 mmHg 75%
    13:00 +20°C° 0.7 mm 4 mps 732 mmHg 74%
    14:00 +21°C° 0.7 mm 5 mps 732 mmHg 73%
    15:00 +21°C° 0.6 mm 4 mps 732 mmHg 73%
    16:00 +21°C° 0.6 mm 4 mps 732 mmHg 73%
    17:00 +20°C° 0.6 mm 4 mps 732 mmHg 73%
    18:00 +19°C° 0 mm 3 mps 732 mmHg 77%
    19:00 +18°C° 0 mm 3 mps 732 mmHg 80%
    20:00 +16°C° 0 mm 2 mps 732 mmHg 83%
    21:00 +15°C° 0 mm 2 mps 732 mmHg 85%
    22:00 +14°C° 0 mm 2 mps 732 mmHg 87%
    23:00 +13°C° 0 mm 2 mps 733 mmHg 90%

    26 Mayo, Domingo

    Tiempo Temperatura Precipitaciones Viento Presión Humedad
    00:00 +13°C° 0 mm 2 mps 733 mmHg 90%
    01:00 +13°C° 0 mm 2 mps 733 mmHg 91%
    02:00 +12°C° 0 mm 2 mps 733 mmHg 92%
    03:00 +12°C° 0 mm 2 mps 733 mmHg 92%
    04:00 +12°C° 0 mm 2 mps 733 mmHg 93%
    05:00 +12°C° 0 mm 2 mps 733 mmHg 93%
    06:00 +13°C° 0 mm 2 mps 733 mmHg 89%
    07:00 +15°C° 0 mm 1 mps 733 mmHg 86%
    08:00 +16°C° 0 mm 1 mps 733 mmHg 82%
    09:00 +19°C° 0.2 mm 1 mps 733 mmHg 78%
    10:00 +20°C° 0.2 mm 1 mps 733 mmHg 74%
    11:00 +21°C° 0.2 mm 1 mps 733 mmHg 70%
    12:00 +21°C° 0.4 mm 2 mps 733 mmHg 70%
    13:00 +21°C° 0.4 mm 2 mps 733 mmHg 70%
    14:00 +22°C° 0.4 mm 3 mps 733 mmHg 70%
    15:00 +22°C° 0.3 mm 3 mps 733 mmHg 71%
    16:00 +22°C° 0.3 mm 3 mps 732 mmHg 72%
    17:00 +22°C° 0.3 mm 3 mps 732 mmHg 73%
    18:00 +20°C° 1 mm 2 mps 732 mmHg 78%
    19:00 +19°C° 1 mm 2 mps 732 mmHg 83%
    20:00 +17°C° 1 mm 2 mps 732 mmHg 87%
    21:00 +18°C° 0.8 mm 1 mps 732 mmHg 89%
    22:00 +16°C° 0.8 mm 1 mps 733 mmHg 90%
    23:00 +15°C° 0.8 mm 1 mps 733 mmHg 92%

    27 Mayo, Lunes

    Tiempo Temperatura Precipitaciones Viento Presión Humedad
    00:00 +15°C° 0 mm 1 mps 733 mmHg 92%
    01:00 +14°C° 0 mm 1 mps 733 mmHg 92%
    02:00 +13°C° 0 mm 0 mps 733 mmHg 92%
    03:00 +13°C° 0 mm 0 mps 733 mmHg 92%
    04:00 +12°C° 0 mm 0 mps 733 mmHg 93%
    05:00 +12°C° 0 mm 0 mps 733 mmHg 93%
    06:00 +15°C° 0 mm 1 mps 733 mmHg 90%
    07:00 +16°C° 0 mm 1 mps 733 mmHg 88%
    08:00 +19°C° 0 mm 1 mps 733 mmHg 85%
    09:00 +20°C° 0.4 mm 1 mps 733 mmHg 81%
    10:00 +20°C° 0.4 mm 2 mps 733 mmHg 77%
    11:00 +23°C° 0.4 mm 2 mps 733 mmHg 73%
    12:00 +23°C° 0.1 mm 2 mps 732 mmHg 71%
    13:00 +24°C° 0.1 mm 2 mps 732 mmHg 68%
    14:00 +25°C° 0.1 mm 2 mps 732 mmHg 66%
    15:00 +24°C° 0.3 mm 3 mps 731 mmHg 70%
    16:00 +24°C° 0.3 mm 3 mps 731 mmHg 74%
    17:00 +23°C° 0.3 mm 4 mps 730 mmHg 79%
    18:00 +21°C° 0.5 mm 4 mps 730 mmHg 82%
    19:00 +20°C° 0.5 mm 3 mps 730 mmHg 86%
    20:00 +19°C° 0.5 mm 3 mps 729 mmHg 90%
    21:00 +19°C° 1.5 mm 3 mps 729 mmHg 91%
    22:00 +18°C° 1.5 mm 2 mps 729 mmHg 93%
    23:00 +18°C° 1.5 mm 2 mps 729 mmHg 95%

    28 Mayo, Martes

    Tiempo Temperatura Precipitaciones Viento Presión Humedad
    00:00 +17°C° 0.4 mm 2 mps 728 mmHg 95%
    01:00 +17°C° 0.4 mm 2 mps 728 mmHg 95%
    02:00 +17°C° 0.4 mm 3 mps 728 mmHg 95%
    03:00 +16°C° 0 mm 3 mps 728 mmHg 94%
    04:00 +16°C° 0 mm 3 mps 727 mmHg 94%
    05:00 +14°C° 0 mm 3 mps 727 mmHg 93%
    06:00 +17°C° 0 mm 3 mps 727 mmHg 90%
    07:00 +18°C° 0 mm 3 mps 728 mmHg 87%
    08:00 +20°C° 0 mm 3 mps 728 mmHg 84%
    09:00 +20°C° 0.4 mm 3 mps 728 mmHg 81%
    10:00 +21°C° 0.4 mm 3 mps 727 mmHg 78%
    11:00 +22°C° 0.4 mm 3 mps 727 mmHg 76%
    12:00 +24°C° 0.3 mm 3 mps 727 mmHg 72%
    13:00 +23°C° 0.3 mm 4 mps 727 mmHg 69%
    14:00 +25°C° 0.3 mm 4 mps 727 mmHg 65%
    15:00 +24°C° 1.6 mm 3 mps 727 mmHg 69%
    16:00 +24°C° 1.6 mm 3 mps 727 mmHg 73%
    17:00 +22°C° 1.6 mm 3 mps 727 mmHg 77%
    18:00 +21°C° 0.8 mm 3 mps 728 mmHg 79%
    19:00 +20°C° 0.8 mm 3 mps 728 mmHg 81%
    20:00 +18°C° 0.8 mm 2 mps 728 mmHg 83%
    21:00 +17°C° 0 mm 2 mps 728 mmHg 85%
    22:00 +17°C° 0 mm 2 mps 729 mmHg 86%
    23:00 +16°C° 0 mm 2 mps 729 mmHg 88%
    Mostrar más